Time,TemperatureF,DewpointF,PressureIn,WindDirection,WindDirectionDegrees,WindSpeedMPH,WindSpeedGustMPH,Humidity,HourlyPrecipIn,Conditions,Clouds,dailyrainin,SoftwareType,DateUTC
2013-04-25 10:58:00,24.8,-6.1,30.10,North,349,4.0,4.0,25,0.00,,,0.00,Wunderground v.1.15,2013-04-25 18:58:00,
2013-04-25 11:03:00,25.0,-6.8,30.11,NE,34,1.0,10.0,24,0.00,,,0.00,Wunderground v.1.15,2013-04-25 19:03:00,
2013-04-25 11:08:00,25.1,-8.5,30.11,NNW,344,7.0,10.0,22,0.00,,,0.00,Wunderground v.1.15,2013-04-25 19:08:00,
2013-04-25 11:13:00,25.1,-8.5,30.11,NW,315,4.0,13.0,22,0.00,,,0.00,Wunderground v.1.15,2013-04-25 19:13:00,
2013-04-25 11:18:00,25.3,-8.3,30.10,NNE,32,5.0,13.0,22,0.00,,,0.00,Wunderground v.1.15,2013-04-25 19:18:00,
2013-04-25 11:23:00,25.4,-7.3,30.10,NNW,342,0.0,7.0,23,0.00,,,0.00,Wunderground v.1.15,2013-04-25 19:23:00,
2013-04-25 11:28:00,25.8,-7.0,30.10,NNW,336,5.0,7.0,23,0.00,,,0.00,Wunderground v.1.15,2013-04-25 19:28:00,
2013-04-25 11:33:00,26.0,-6.8,30.11,NNW,330,4.0,5.0,23,0.00,,,0.00,Wunderground v.1.15,2013-04-25 19:33:00,
2013-04-25 11:38:00,26.1,-6.7,30.11,NNE,32,1.0,13.0,23,0.00,,,0.00,Wunderground v.1.15,2013-04-25 19:38:00,
2013-04-25 11:43:00,26.0,-7.7,30.11,NNW,331,3.0,6.0,22,0.00,,,0.00,Wunderground v.1.15,2013-04-25 19:43:00,
2013-04-25 11:48:00,26.0,-5.9,30.11,East,86,1.0,6.0,24,0.00,,,0.00,Wunderground v.1.15,2013-04-25 19:48:00,
2013-04-25 11:53:00,26.0,-6.8,30.11,WNW,291,5.0,6.0,23,0.00,,,0.00,Wunderground v.1.15,2013-04-25 19:53:00,
2013-04-25 11:58:00,26.3,-4.8,30.11,NNW,329,0.0,10.0,25,0.00,,,0.00,Wunderground v.1.15,2013-04-25 19:58:00,
2013-04-25 12:03:00,26.9,-5.2,30.11,North,355,9.0,9.0,24,0.00,,,0.00,Wunderground v.1.15,2013-04-25 20:03:00,
2013-04-25 12:08:00,26.6,-6.3,30.11,WNW,300,0.0,11.0,23,0.00,,,0.00,Wunderground v.1.15,2013-04-25 20:08:00,
2013-04-25 12:13:00,26.7,-5.3,30.11,NE,51,1.0,6.0,24,0.00,,,0.00,Wunderground v.1.15,2013-04-25 20:13:00,
2013-04-25 12:18:00,27.3,-4.8,30.11,NNW,335,3.0,7.0,24,0.00,,,0.00,Wunderground v.1.15,2013-04-25 20:18:00,
2013-04-25 12:23:00,27.0,-5.1,30.11,NNW,346,0.0,8.0,24,0.00,,,0.00,Wunderground v.1.15,2013-04-25 20:23:00,
2013-04-25 12:28:00,27.3,-6.6,30.11,NNW,348,0.0,8.0,22,0.00,,,0.00,Wunderground v.1.15,2013-04-25 20:28:00,
2013-04-25 12:33:00,27.5,-6.4,30.10,NNE,13,1.0,6.0,22,0.00,,,0.00,Wunderground v.1.15,2013-04-25 20:33:00,
2013-04-25 12:39:00,27.3,-5.7,30.10,NE,34,0.0,8.0,23,0.00,,,0.00,Wunderground v.1.15,2013-04-25 20:39:00,
2013-04-25 12:44:00,27.6,-5.4,30.10,NW,315,4.0,6.0,23,0.00,,,0.00,Wunderground v.1.15,2013-04-25 20:44:00,
2013-04-25 12:49:00,27.6,-4.6,30.10,NE,44,0.0,6.0,24,0.00,,,0.00,Wunderground v.1.15,2013-04-25 20:49:00,
2013-04-25 12:54:00,27.8,-5.3,30.10,NNW,330,0.0,6.0,23,0.00,,,0.00,Wunderground v.1.15,2013-04-25 20:54:00,
2013-04-25 12:59:00,27.8,-4.4,30.10,North,355,1.0,7.0,24,0.00,,,0.00,Wunderground v.1.15,2013-04-25 20:59:00,
2013-04-25 13:04:00,28.2,-4.9,30.10,NNE,13,1.0,7.0,23,0.00,,,0.00,Wunderground v.1.15,2013-04-25 21:04:00,
2013-04-25 13:09:00,28.4,-3.9,30.10,ENE,70,2.0,7.0,24,0.00,,,0.00,Wunderground v.1.15,2013-04-25 21:09:00,
2013-04-25 13:14:00,28.5,-3.8,30.10,North,349,3.0,10.0,24,0.00,,,0.00,Wunderground v.1.15,2013-04-25 21:14:00,
2013-04-25 13:19:00,28.1,-3.3,30.10,East,100,1.0,12.0,25,0.00,,,0.00,Wunderground v.1.15,2013-04-25 21:19:00,
2013-04-25 13:24:00,27.9,-5.2,30.10,NNE,32,2.0,9.0,23,0.00,,,0.00,Wunderground v.1.15,2013-04-25 21:24:00,
2013-04-25 13:29:00,28.4,-4.8,30.10,North,360,2.0,9.0,23,0.00,,,0.00,Wunderground v.1.15,2013-04-25 21:29:00,
2013-04-25 13:34:00,28.7,-4.5,30.10,East,101,1.0,4.0,23,0.00,,,0.00,Wunderground v.1.15,2013-04-25 21:34:00,
2013-04-25 13:39:00,29.0,-4.2,30.10,NNW,330,2.0,6.0,23,0.00,,,0.00,Wunderground v.1.15,2013-04-25 21:39:00,
2013-04-25 13:44:00,28.8,-5.3,30.10,NNW,348,0.0,7.0,22,0.00,,,0.00,Wunderground v.1.15,2013-04-25 21:44:00,
2013-04-25 13:50:00,28.8,-4.4,30.10,North,9,0.0,2.0,23,0.00,,,0.00,Wunderground v.1.15,2013-04-25 21:50:00,
2013-04-25 13:55:00,28.8,-4.4,30.10,North,355,0.0,10.0,23,0.00,,,0.00,Wunderground v.1.15,2013-04-25 21:55:00,
2013-04-25 14:00:00,28.8,-3.5,30.10,NNW,340,2.0,3.0,24,0.00,,,0.00,Wunderground v.1.15,2013-04-25 22:00:00,
2013-04-25 14:05:00,28.8,-4.4,30.10,NNE,19,9.0,9.0,23,0.00,,,0.00,Wunderground v.1.15,2013-04-25 22:05:00,
2013-04-25 14:10:00,29.0,-2.5,30.10,NNW,342,1.0,3.0,25,0.00,,,0.00,Wunderground v.1.15,2013-04-25 22:10:00,
2013-04-25 14:15:00,29.1,-3.3,30.09,North,355,4.0,6.0,24,0.00,,,0.00,Wunderground v.1.15,2013-04-25 22:15:00,
2013-04-25 14:20:00,28.8,-4.4,30.09,North,360,2.0,6.0,23,0.00,,,0.00,Wunderground v.1.15,2013-04-25 22:20:00,
2013-04-25 14:25:00,28.7,-3.6,30.09,NE,51,4.0,10.0,24,0.00,,,0.00,Wunderground v.1.15,2013-04-25 22:25:00,
2013-04-25 14:30:00,29.1,-2.4,30.09,NNW,342,2.0,5.0,25,0.00,,,0.00,Wunderground v.1.15,2013-04-25 22:30:00,
2013-04-25 14:35:00,29.1,-3.3,30.09,WNW,283,3.0,7.0,24,0.00,,,0.00,Wunderground v.1.15,2013-04-25 22:35:00,
2013-04-25 14:41:00,29.4,-3.9,30.09,ENE,65,0.0,4.0,23,0.00,,,0.00,Wunderground v.1.15,2013-04-25 22:41:00,
2013-04-25 14:46:00,29.7,-1.9,30.09,NW,304,4.0,5.0,25,0.00,,,0.00,Wunderground v.1.15,2013-04-25 22:46:00,
2013-04-25 14:51:00,29.5,-2.9,30.09,NNW,330,1.0,5.0,24,0.00,,,0.00,Wunderground v.1.15,2013-04-25 22:51:00,
2013-04-25 14:56:00,29.7,-1.9,30.09,NW,325,4.0,6.0,25,0.00,,,0.00,Wunderground v.1.15,2013-04-25 22:56:00,
2013-04-25 15:01:00,30.0,-2.5,30.09,NE,40,2.0,3.0,24,0.00,,,0.00,Wunderground v.1.15,2013-04-25 23:01:00,
2013-04-25 15:06:00,30.1,-1.6,30.09,NW,323,3.0,6.0,25,0.00,,,0.00,Wunderground v.1.15,2013-04-25 23:06:00,
2013-04-25 15:11:00,29.7,-2.8,30.09,NNW,335,5.0,6.0,24,0.00,,,0.00,Wunderground v.1.15,2013-04-25 23:11:00,
2013-04-25 15:16:00,29.5,-1.2,30.09,NNW,340,2.0,6.0,26,0.00,,,0.00,Wunderground v.1.15,2013-04-25 23:16:00,
2013-04-25 15:21:00,30.0,0.0,30.09,ENE,66,1.0,3.0,27,0.00,,,0.00,Wunderground v.1.15,2013-04-25 23:21:00,
2013-04-25 15:26:00,30.1,-0.7,30.09,NNE,19,1.0,7.0,26,0.00,,,0.00,Wunderground v.1.15,2013-04-25 23:26:00,
2013-04-25 15:31:00,30.6,-1.1,30.08,North,355,6.0,7.0,25,0.00,,,0.00,Wunderground v.1.15,2013-04-25 23:31:00,
2013-04-25 15:36:00,30.7,0.6,30.08,North,360,0.0,7.0,27,0.00,,,0.00,Wunderground v.1.15,2013-04-25 23:36:00,
2013-04-25 15:41:00,30.9,-0.9,30.08,NNW,330,5.0,6.0,25,0.00,,,0.00,Wunderground v.1.15,2013-04-25 23:41:00,
2013-04-25 15:46:00,30.6,-2.0,30.07,NW,323,1.0,6.0,24,0.00,,,0.00,Wunderground v.1.15,2013-04-25 23:46:00,
2013-04-25 15:51:00,30.6,-0.3,30.07,WNW,294,2.0,7.0,26,0.00,,,0.00,Wunderground v.1.15,2013-04-25 23:51:00,
2013-04-25 15:57:00,30.9,0.0,30.07,NNE,26,5.0,7.0,26,0.00,,,0.00,Wunderground v.1.15,2013-04-25 23:57:00,
2013-04-25 16:02:00,31.0,0.1,30.07,East,81,0.0,4.0,26,0.00,,,0.00,Wunderground v.1.15,2013-04-26 00:02:00,
2013-04-25 16:07:00,30.7,-0.2,30.07,NW,313,4.0,6.0,26,0.00,,,0.00,Wunderground v.1.15,2013-04-26 00:07:00,
2013-04-25 16:12:00,31.0,0.1,30.07,NNE,31,2.0,3.0,26,0.00,,,0.00,Wunderground v.1.15,2013-04-26 00:12:00,
2013-04-25 16:17:00,30.9,0.0,30.07,NNE,18,3.0,6.0,26,0.00,,,0.00,Wunderground v.1.15,2013-04-26 00:17:00,
2013-04-25 16:22:00,30.7,-1.9,30.07,NNE,24,2.0,7.0,24,0.00,,,0.00,Wunderground v.1.15,2013-04-26 00:22:00,
2013-04-25 16:27:00,30.6,-1.1,30.07,NW,326,1.0,10.0,25,0.00,,,0.00,Wunderground v.1.15,2013-04-26 00:27:00,
2013-04-25 16:32:00,30.9,-0.9,30.07,WNW,303,3.0,5.0,25,0.00,,,0.00,Wunderground v.1.15,2013-04-26 00:32:00,
2013-04-25 16:37:00,31.0,0.1,30.07,NNW,341,3.0,5.0,26,0.00,,,0.00,Wunderground v.1.15,2013-04-26 00:37:00,
2013-04-25 16:42:00,31.0,-0.8,30.07,NW,315,3.0,8.0,25,0.00,,,0.00,Wunderground v.1.15,2013-04-26 00:42:00,
2013-04-25 16:47:00,31.2,0.2,30.07,WNW,299,5.0,10.0,26,0.00,,,0.00,Wunderground v.1.15,2013-04-26 00:47:00,
2013-04-25 16:52:00,31.2,0.2,30.07,NNW,334,4.0,10.0,26,0.00,,,0.00,Wunderground v.1.15,2013-04-26 00:52:00,
2013-04-25 16:57:00,31.0,0.1,30.07,North,5,4.0,10.0,26,0.00,,,0.00,Wunderground v.1.15,2013-04-26 00:57:00,
2013-04-25 17:03:00,31.0,0.1,30.07,North,355,1.0,5.0,26,0.00,,,0.00,Wunderground v.1.15,2013-04-26 01:03:00,
2013-04-25 17:08:00,31.3,1.1,30.07,NW,314,2.0,5.0,27,0.00,,,0.00,Wunderground v.1.15,2013-04-26 01:08:00,
2013-04-25 17:13:00,31.3,0.3,30.07,NNE,18,6.0,6.0,26,0.00,,,0.00,Wunderground v.1.15,2013-04-26 01:13:00,
2013-04-25 17:18:00,31.3,0.3,30.07,NNE,30,2.0,8.0,26,0.00,,,0.00,Wunderground v.1.15,2013-04-26 01:18:00,
2013-04-25 17:23:00,31.3,-0.5,30.07,NW,323,3.0,7.0,25,0.00,,,0.00,Wunderground v.1.15,2013-04-26 01:23:00,
2013-04-25 17:28:00,31.2,-0.6,30.07,NNW,337,3.0,8.0,25,0.00,,,0.00,Wunderground v.1.15,2013-04-26 01:28:00,
2013-04-25 17:33:00,31.0,0.1,30.07,NNW,339,0.0,3.0,26,0.00,,,0.00,Wunderground v.1.15,2013-04-26 01:33:00,
2013-04-25 17:38:00,31.0,0.1,30.07,NW,318,0.0,7.0,26,0.00,,,0.00,Wunderground v.1.15,2013-04-26 01:38:00,
2013-04-25 17:43:00,31.2,0.2,30.07,NNW,336,3.0,5.0,26,0.00,,,0.00,Wunderground v.1.15,2013-04-26 01:43:00,
2013-04-25 17:48:00,31.3,-0.5,30.07,North,355,1.0,5.0,25,0.00,,,0.00,Wunderground v.1.15,2013-04-26 01:48:00,
2013-04-25 17:53:00,31.6,1.4,30.07,ENE,63,1.0,4.0,27,0.00,,,0.00,Wunderground v.1.15,2013-04-26 01:53:00,
2013-04-25 17:58:00,31.8,-1.0,30.07,NNE,18,1.0,5.0,24,0.00,,,0.00,Wunderground v.1.15,2013-04-26 01:58:00,
2013-04-25 18:03:00,31.3,0.3,30.06,NNE,23,1.0,5.0,26,0.00,,,0.00,Wunderground v.1.15,2013-04-26 02:03:00,
2013-04-25 18:08:00,31.5,0.5,30.06,NNW,327,1.0,5.0,26,0.00,,,0.00,Wunderground v.1.15,2013-04-26 02:08:00,
2013-04-25 18:13:00,31.5,0.5,30.06,NNW,343,1.0,5.0,26,0.00,,,0.00,Wunderground v.1.15,2013-04-26 02:13:00,
2013-04-25 18:18:00,31.6,-0.3,30.06,NNW,332,0.0,5.0,25,0.00,,,0.00,Wunderground v.1.15,2013-04-26 02:18:00,
2013-04-25 18:23:00,31.6,-0.3,30.06,East,89,1.0,3.0,25,0.00,,,0.00,Wunderground v.1.15,2013-04-26 02:23:00,
2013-04-25 18:28:00,31.6,0.6,30.06,North,350,1.0,4.0,26,0.00,,,0.00,Wunderground v.1.15,2013-04-26 02:28:00,
2013-04-25 18:33:00,31.8,0.7,30.05,NNE,25,1.0,2.0,26,0.00,,,0.00,Wunderground v.1.15,2013-04-26 02:33:00,
2013-04-25 18:38:00,31.8,0.7,30.05,NW,313,0.0,7.0,26,0.00,,,0.00,Wunderground v.1.15,2013-04-26 02:38:00,
2013-04-25 18:43:00,31.8,-0.1,30.05,North,5,2.0,6.0,25,0.00,,,0.00,Wunderground v.1.15,2013-04-26 02:43:00,
2013-04-25 18:48:00,31.3,-0.5,30.06,North,360,4.0,6.0,25,0.00,,,0.00,Wunderground v.1.15,2013-04-26 02:48:00,
2013-04-25 18:53:00,31.0,0.1,30.06,NNW,331,0.0,4.0,26,0.00,,,0.00,Wunderground v.1.15,2013-04-26 02:53:00,
2013-04-25 18:58:00,31.2,0.2,30.06,NNE,15,1.0,5.0,26,0.00,,,0.00,Wunderground v.1.15,2013-04-26 02:58:00,
2013-04-25 19:04:00,31.3,1.1,30.06,NW,317,1.0,4.0,27,0.00,,,0.00,Wunderground v.1.15,2013-04-26 03:04:00,
2013-04-25 19:09:00,31.2,0.2,30.06,North,11,1.0,5.0,26,0.00,,,0.00,Wunderground v.1.15,2013-04-26 03:09:00,
2013-04-25 19:14:00,31.2,0.2,30.06,NNE,18,1.0,5.0,26,0.00,,,0.00,Wunderground v.1.15,2013-04-26 03:14:00,
2013-04-25 19:19:00,31.3,-0.5,30.05,NW,326,3.0,9.0,25,0.00,,,0.00,Wunderground v.1.15,2013-04-26 03:19:00,
2013-04-25 19:24:00,31.2,1.0,30.05,NNW,340,3.0,5.0,27,0.00,,,0.00,Wunderground v.1.15,2013-04-26 03:24:00,
2013-04-25 19:29:00,31.0,-0.8,30.05,NNW,333,2.0,5.0,25,0.00,,,0.00,Wunderground v.1.15,2013-04-26 03:29:00,
2013-04-25 19:34:00,31.2,0.2,30.05,North,360,5.0,5.0,26,0.00,,,0.00,Wunderground v.1.15,2013-04-26 03:34:00,
2013-04-25 19:39:00,31.0,0.1,30.05,NNW,331,2.0,7.0,26,0.00,,,0.00,Wunderground v.1.15,2013-04-26 03:39:00,
2013-04-25 19:44:00,30.7,0.6,30.05,NNW,336,2.0,4.0,27,0.00,,,0.00,Wunderground v.1.15,2013-04-26 03:44:00,
2013-04-25 19:49:00,30.7,-0.2,30.05,North,355,2.0,4.0,26,0.00,,,0.00,Wunderground v.1.15,2013-04-26 03:49:00,
2013-04-25 19:54:00,30.6,-1.1,30.05,NNE,14,0.0,7.0,25,0.00,,,0.00,Wunderground v.1.15,2013-04-26 03:54:00,
2013-04-25 19:59:00,30.6,0.5,30.05,NNW,346,2.0,7.0,27,0.00,,,0.00,Wunderground v.1.15,2013-04-26 03:59:00,
2013-04-25 20:01:00,30.6,0.5,30.05,NNW,336,3.0,3.0,27,0.00,,,0.00,Wunderground v.1.15,2013-04-26 04:01:00,
2013-04-25 20:02:00,30.6,-0.3,30.05,North,349,2.0,3.0,26,0.00,,,0.00,Wunderground v.1.15,2013-04-26 04:02:00,
2013-04-25 20:07:00,30.6,-0.3,30.05,NNW,327,1.0,4.0,26,0.00,,,0.00,Wunderground v.1.15,2013-04-26 04:07:00,
2013-04-25 20:12:00,30.4,-2.2,30.05,North,360,7.0,7.0,24,0.00,,,0.00,Wunderground v.1.15,2013-04-26 04:12:00,
2013-04-25 20:17:00,30.1,-0.7,30.05,North,355,0.0,9.0,26,0.00,,,0.00,Wunderground v.1.15,2013-04-26 04:17:00,
2013-04-25 20:22:00,30.1,-1.6,30.05,North,5,0.0,4.0,25,0.00,,,0.00,Wunderground v.1.15,2013-04-26 04:22:00,
2013-04-25 20:27:00,30.1,-1.6,30.05,NNW,343,1.0,7.0,25,0.00,,,0.00,Wunderground v.1.15,2013-04-26 04:27:00,
2013-04-25 20:32:00,30.0,-1.6,30.04,North,5,0.0,4.0,25,0.00,,,0.00,Wunderground v.1.15,2013-04-26 04:32:00,
2013-04-25 20:37:00,29.8,-1.8,30.04,WNW,301,0.0,4.0,25,0.00,,,0.00,Wunderground v.1.15,2013-04-26 04:37:00,
2013-04-25 20:42:00,29.8,-1.8,30.04,NNW,346,1.0,3.0,25,0.00,,,0.00,Wunderground v.1.15,2013-04-26 04:42:00,
2013-04-25 20:47:00,29.7,-1.1,30.04,NNW,342,0.0,6.0,26,0.00,,,0.00,Wunderground v.1.15,2013-04-26 04:47:00,
2013-04-25 20:52:00,29.4,-1.3,30.04,NNW,338,1.0,4.0,26,0.00,,,0.00,Wunderground v.1.15,2013-04-26 04:52:00,
2013-04-25 20:57:00,29.1,-1.6,30.04,NNW,334,1.0,4.0,26,0.00,,,0.00,Wunderground v.1.15,2013-04-26 04:57:00,
2013-04-25 21:02:00,28.8,-1.8,30.04,NNW,331,0.0,3.0,26,0.00,,,0.00,Wunderground v.1.15,2013-04-26 05:02:00,
2013-04-25 21:07:00,28.5,-1.3,30.04,NNW,336,0.0,3.0,27,0.00,,,0.00,Wunderground v.1.15,2013-04-26 05:07:00,
2013-04-25 21:12:00,28.2,-1.6,30.04,North,350,0.0,5.0,27,0.00,,,0.00,Wunderground v.1.15,2013-04-26 05:12:00,
2013-04-25 21:17:00,27.9,-1.1,30.04,NNW,347,1.0,5.0,28,0.00,,,0.00,Wunderground v.1.15,2013-04-26 05:17:00,
2013-04-25 21:23:00,27.6,-2.1,30.04,North,350,0.0,2.0,27,0.00,,,0.00,Wunderground v.1.15,2013-04-26 05:23:00,
2013-04-25 21:28:00,27.3,-1.6,30.04,North,349,0.0,5.0,28,0.00,,,0.00,Wunderground v.1.15,2013-04-26 05:28:00,
2013-04-25 21:33:00,27.2,-1.7,30.04,NNW,329,0.0,2.0,28,0.00,,,0.00,Wunderground v.1.15,2013-04-26 05:33:00,
2013-04-25 21:38:00,26.9,-1.2,30.04,NNE,18,0.0,2.0,29,0.00,,,0.00,Wunderground v.1.15,2013-04-26 05:38:00,
2013-04-25 21:43:00,26.7,-2.1,30.04,NNE,18,0.0,0.0,28,0.00,,,0.00,Wunderground v.1.15,2013-04-26 05:43:00,
2013-04-25 21:48:00,26.4,-2.4,30.04,NNE,18,0.0,0.0,28,0.00,,,0.00,Wunderground v.1.15,2013-04-26 05:48:00,
2013-04-25 21:53:00,26.3,-2.4,30.04,NNE,18,0.0,1.0,28,0.00,,,0.00,Wunderground v.1.15,2013-04-26 05:53:00,
2013-04-25 21:58:00,26.0,-2.7,30.04,NNE,18,0.0,1.0,28,0.00,,,0.00,Wunderground v.1.15,2013-04-26 05:58:00,
2013-04-25 22:03:00,25.8,-1.4,30.05,NNE,18,1.0,1.0,30,0.00,,,0.00,Wunderground v.1.15,2013-04-26 06:03:00,
2013-04-25 22:08:00,25.6,-2.3,30.05,NNE,18,0.0,1.0,29,0.00,,,0.00,Wunderground v.1.15,2013-04-26 06:08:00,
2013-04-25 22:13:00,25.4,-2.5,30.05,NNW,332,0.0,2.0,29,0.00,,,0.00,Wunderground v.1.15,2013-04-26 06:13:00,
2013-04-25 22:19:00,25.3,-2.6,30.04,NNW,346,0.0,2.0,29,0.00,,,0.00,Wunderground v.1.15,2013-04-26 06:19:00,
2013-04-25 22:24:00,25.3,-1.9,30.04,NNE,23,0.0,2.0,30,0.00,,,0.00,Wunderground v.1.15,2013-04-26 06:24:00,
2013-04-25 22:29:00,25.3,-2.6,30.04,NNE,32,0.0,2.0,29,0.00,,,0.00,Wunderground v.1.15,2013-04-26 06:29:00,
2013-04-25 22:34:00,25.0,-2.8,30.04,NE,50,0.0,1.0,29,0.00,,,0.00,Wunderground v.1.15,2013-04-26 06:34:00,
2013-04-25 22:39:00,25.0,-2.1,30.04,NE,49,0.0,2.0,30,0.00,,,0.00,Wunderground v.1.15,2013-04-26 06:39:00,
2013-04-25 22:44:00,24.8,-2.3,30.04,ENE,62,0.0,1.0,30,0.00,,,0.00,Wunderground v.1.15,2013-04-26 06:44:00,
2013-04-25 22:49:00,24.7,-2.4,30.04,ENE,62,0.0,1.0,30,0.00,,,0.00,Wunderground v.1.15,2013-04-26 06:49:00,
2013-04-25 22:54:00,24.5,-2.6,30.04,ENE,62,1.0,1.0,30,0.00,,,0.00,Wunderground v.1.15,2013-04-26 06:54:00,
2013-04-25 22:59:00,24.5,-1.9,30.04,ENE,62,0.0,1.0,31,0.00,,,0.00,Wunderground v.1.15,2013-04-26 06:59:00,
2013-04-25 23:04:00,24.4,-2.0,30.03,ENE,62,0.0,0.0,31,0.00,,,0.00,Wunderground v.1.15,2013-04-26 07:04:00,